TimeCST,TemperatureF,Dew PointF,Humidity,Sea Level PressureIn,VisibilityMPH,Wind Direction,Wind SpeedMPH,Gust SpeedMPH,PrecipitationIn,Events,Conditions,WindDirDegrees,DateUTC
12:15 AM,15.8,9.0,74,30.18,10.0,Calm,Calm,-,N/A,,Overcast,0,2014-01-08 06:15:00
12:35 AM,15.8,9.1,75,30.18,10.0,Calm,Calm,-,N/A,,Overcast,0,2014-01-08 06:35:00
12:55 AM,15.8,9.0,74,30.18,10.0,Calm,Calm,-,N/A,,Overcast,0,2014-01-08 06:55:00
1:15 AM,16.2,9.0,73,30.18,10.0,Calm,Calm,-,N/A,,Overcast,0,2014-01-08 07:15:00
1:35 AM,16.2,9.0,73,30.18,10.0,Calm,Calm,-,N/A,,Overcast,0,2014-01-08 07:35:00
1:55 AM,15.8,9.1,75,30.18,10.0,Calm,Calm,-,N/A,,Overcast,0,2014-01-08 07:55:00
2:15 AM,15.8,9.3,76,30.19,7.0,Calm,Calm,-,N/A,Snow,Light Snow,0,2014-01-08 08:15:00
2:35 AM,15.8,9.5,76,30.19,7.0,Calm,Calm,-,N/A,,Overcast,0,2014-01-08 08:35:00
2:55 AM,14.9,9.3,79,30.20,10.0,Calm,Calm,-,N/A,,Overcast,0,2014-01-08 08:55:00
3:15 AM,14.2,8.4,78,30.21,10.0,Calm,Calm,-,N/A,,Mostly Cloudy,0,2014-01-08 09:15:00
3:35 AM,13.8,8.6,80,30.21,10.0,Calm,Calm,-,N/A,,Clear,0,2014-01-08 09:35:00
3:55 AM,13.6,8.4,80,30.21,10.0,Calm,Calm,-,N/A,,Clear,0,2014-01-08 09:55:00
4:15 AM,12.6,7.7,81,30.21,10.0,Calm,Calm,-,N/A,,Clear,0,2014-01-08 10:15:00
4:35 AM,11.8,7.2,81,30.21,10.0,ENE,4.6,-,N/A,,Clear,70,2014-01-08 10:35:00
4:55 AM,11.3,6.1,80,30.21,10.0,ENE,5.8,-,N/A,,Clear,60,2014-01-08 10:55:00
5:15 AM,10.2,4.8,79,30.21,10.0,ENE,5.8,-,N/A,,Clear,60,2014-01-08 11:15:00
5:35 AM,9.1,4.1,80,30.21,10.0,ENE,5.8,-,N/A,,Clear,70,2014-01-08 11:35:00
5:55 AM,8.6,3.9,81,30.22,10.0,ENE,4.6,-,N/A,,Clear,60,2014-01-08 11:55:00
6:15 AM,8.6,4.1,82,30.22,10.0,NE,4.6,-,N/A,,Scattered Clouds,50,2014-01-08 12:15:00
6:35 AM,9.5,4.8,81,30.23,10.0,ENE,3.5,-,N/A,,Overcast,60,2014-01-08 12:35:00
6:55 AM,10.4,5.4,80,30.23,10.0,East,4.6,-,N/A,,Overcast,80,2014-01-08 12:55:00
7:15 AM,10.4,5.0,79,30.23,10.0,East,6.9,-,N/A,,Overcast,90,2014-01-08 13:15:00
7:35 AM,10.4,5.0,79,30.23,10.0,East,5.8,-,N/A,,Overcast,80,2014-01-08 13:35:00
7:55 AM,10.9,4.8,76,30.24,10.0,East,4.6,-,N/A,,Overcast,90,2014-01-08 13:55:00
8:15 AM,11.1,5.0,76,30.25,10.0,East,3.5,-,N/A,,Overcast,90,2014-01-08 14:15:00
8:35 AM,11.3,5.0,76,30.26,10.0,East,5.8,-,N/A,,Overcast,100,2014-01-08 14:35:00
8:55 AM,11.7,5.0,75,30.27,10.0,ESE,5.8,-,N/A,,Overcast,110,2014-01-08 14:55:00
9:15 AM,12.2,5.4,74,30.28,10.0,East,3.5,-,N/A,,Overcast,100,2014-01-08 15:15:00
9:35 AM,12.6,5.2,72,30.29,10.0,ESE,3.5,-,N/A,Snow,Light Snow,120,2014-01-08 15:35:00
9:55 AM,12.9,5.5,72,30.30,10.0,SE,4.6,-,N/A,,Overcast,130,2014-01-08 15:55:00
10:15 AM,13.1,5.4,71,30.30,10.0,SE,4.6,-,N/A,,Overcast,140,2014-01-08 16:15:00
10:35 AM,13.8,5.0,68,30.31,10.0,SE,4.6,-,N/A,,Overcast,130,2014-01-08 16:35:00
10:55 AM,14.2,4.8,66,30.31,10.0,SE,5.8,-,N/A,,Overcast,130,2014-01-08 16:55:00
11:15 AM,14.7,4.5,64,30.31,10.0,ESE,5.8,-,N/A,,Overcast,120,2014-01-08 17:15:00
11:35 AM,14.9,4.6,64,30.30,10.0,SSE,6.9,-,N/A,,Overcast,150,2014-01-08 17:35:00
11:55 AM,15.8,5.0,62,30.29,10.0,SE,6.9,-,N/A,,Overcast,140,2014-01-08 17:55:00
12:15 PM,16.3,4.5,60,30.28,10.0,SE,5.8,-,N/A,,Overcast,130,2014-01-08 18:15:00
12:35 PM,16.3,5.2,62,30.27,10.0,SSE,5.8,-,N/A,,Overcast,150,2014-01-08 18:35:00
12:55 PM,17.2,5.9,61,30.26,10.0,South,8.1,-,N/A,,Overcast,170,2014-01-08 18:55:00
1:15 PM,17.2,5.9,61,30.26,10.0,SSE,5.8,-,N/A,,Overcast,160,2014-01-08 19:15:00
1:35 PM,17.6,6.3,61,30.26,10.0,SSE,6.9,-,N/A,,Overcast,160,2014-01-08 19:35:00
1:55 PM,17.6,7.2,64,30.25,10.0,SSE,6.9,-,N/A,,Overcast,150,2014-01-08 19:55:00
2:15 PM,17.6,8.1,66,30.25,10.0,SSE,8.1,-,N/A,,Overcast,150,2014-01-08 20:15:00
2:35 PM,18.1,8.4,66,30.25,10.0,SSE,5.8,-,N/A,,Overcast,160,2014-01-08 20:35:00
2:55 PM,18.5,8.6,65,30.24,10.0,SSE,8.1,-,N/A,,Overcast,150,2014-01-08 20:55:00
3:15 PM,18.7,8.6,65,30.24,10.0,SSE,9.2,-,N/A,,Overcast,150,2014-01-08 21:15:00
3:35 PM,19.2,9.0,64,30.24,10.0,SSE,6.9,-,N/A,,Overcast,150,2014-01-08 21:35:00
3:55 PM,19.4,9.3,65,30.24,10.0,SSE,9.2,-,N/A,,Overcast,160,2014-01-08 21:55:00
4:15 PM,19.4,9.5,65,30.24,10.0,SSE,11.5,-,N/A,,Overcast,150,2014-01-08 22:15:00
4:35 PM,19.4,9.3,65,30.24,10.0,SSE,9.2,-,N/A,,Overcast,150,2014-01-08 22:35:00
4:55 PM,19.2,9.3,65,30.23,10.0,SE,8.1,-,N/A,,Overcast,140,2014-01-08 22:55:00
5:15 PM,19.4,9.5,65,30.23,10.0,SE,10.4,-,N/A,,Overcast,140,2014-01-08 23:15:00
5:35 PM,19.2,9.5,66,30.23,10.0,SSE,8.1,-,N/A,,Overcast,150,2014-01-08 23:35:00
5:55 PM,19.2,9.9,67,30.23,10.0,SE,8.1,-,N/A,,Overcast,140,2014-01-08 23:55:00
6:15 PM,19.2,10.2,68,30.22,10.0,SSE,9.2,-,N/A,,Overcast,150,2014-01-09 00:15:00
6:35 PM,19.0,10.4,69,30.22,10.0,SSE,10.4,-,N/A,,Overcast,150,2014-01-09 00:35:00
6:55 PM,18.0,10.0,71,30.23,10.0,SSE,10.4,-,N/A,,Scattered Clouds,150,2014-01-09 00:55:00
7:15 PM,16.5,9.5,74,30.23,10.0,SSE,8.1,-,N/A,,Clear,160,2014-01-09 01:15:00
7:35 PM,16.7,9.5,73,30.23,10.0,SSE,11.5,-,N/A,,Mostly Cloudy,160,2014-01-09 01:35:00
7:55 PM,17.1,9.9,73,30.24,10.0,SSE,10.4,-,N/A,,Overcast,160,2014-01-09 01:55:00
8:15 PM,17.2,10.4,75,30.24,10.0,SSE,11.5,-,N/A,,Overcast,160,2014-01-09 02:15:00
8:35 PM,17.6,10.8,75,30.23,10.0,SSE,11.5,-,N/A,,Overcast,160,2014-01-09 02:35:00
8:55 PM,18.1,11.3,75,30.23,10.0,SSE,11.5,16.1,N/A,,Overcast,160,2014-01-09 02:55:00
9:15 PM,18.5,11.7,75,30.23,10.0,South,10.4,-,N/A,,Overcast,170,2014-01-09 03:15:00
9:35 PM,19.0,12.0,74,30.23,10.0,South,12.7,-,N/A,,Overcast,170,2014-01-09 03:35:00
9:55 PM,19.2,12.2,74,30.22,10.0,South,13.8,-,N/A,,Overcast,180,2014-01-09 03:55:00
10:15 PM,19.0,12.4,75,30.22,10.0,South,11.5,-,N/A,,Overcast,170,2014-01-09 04:15:00
10:35 PM,19.2,13.1,77,30.21,10.0,South,15.0,18.4,N/A,,Overcast,170,2014-01-09 04:35:00
10:55 PM,19.0,13.6,79,30.20,10.0,South,15.0,-,N/A,,Overcast,170,2014-01-09 04:55:00
11:15 PM,18.5,14.4,84,30.19,10.0,South,15.0,19.6,N/A,,Overcast,170,2014-01-09 05:15:00
11:35 PM,18.9,14.4,83,30.19,10.0,South,16.1,-,N/A,,Overcast,170,2014-01-09 05:35:00
11:55 PM,18.7,14.5,84,30.18,10.0,SSE,15.0,23.0,N/A,,Overcast,160,2014-01-09 05:55:00